This is the latest recevied weather packets stored in our database for station/object KE5VT. If no packets are shown the sender has not sent any weather packets the latest 10 day(s).
| Time | Temp. | Humidity | Pressure | Rain* | Wind** | Luminosity | Snow |
|---|---|---|---|---|---|---|---|
| 1788016043 | 25° C | 87% | 1018.8 hPa | 0 mm | - | 402 W/m² | - |
| 1788015742 | 24.44° C | 90% | 1018.5 hPa | 0 mm | - | 244 W/m² | - |
| 1788015438 | 23.89° C | 90% | 1018.5 hPa | 0 mm | - | 154 W/m² | - |
| 1788015133 | 23.89° C | 91% | 1018.4 hPa | 0 mm | - | 132 W/m² | - |
| 1788014831 | 23.89° C | 91% | 1018.5 hPa | 0 mm | - | 108 W/m² | - |
| 1788014531 | 23.89° C | 91% | 1018.6 hPa | 0 mm | - | 118 W/m² | - |
| 1788014227 | 23.89° C | 93% | 1018.6 hPa | 0 mm | - | 131 W/m² | - |
| 1788013927 | 23.33° C | 92% | 1018.7 hPa | 0 mm | - | 126 W/m² | - |
| 1788013621 | 23.33° C | 94% | 1018.6 hPa | 0 mm | - | 114 W/m² | - |
| 1788013315 | 23.33° C | 94% | 1018.6 hPa | 0 mm | - | 108 W/m² | - |
| 1788013015 | 23.33° C | 95% | 1018.6 hPa | 0 mm | - | 115 W/m² | - |
| 1788012709 | 22.78° C | 95% | 1018.5 hPa | 0 mm | - | 122 W/m² | - |
| 1788012405 | 22.78° C | 95% | 1018.7 hPa | 0 mm | - | 144 W/m² | - |
| 1788012104 | 22.22° C | 96% | 1018.6 hPa | 0 mm | - | 120 W/m² | - |
| 1788011799 | 22.22° C | 97% | 1018.6 hPa | 0 mm | - | 118 W/m² | - |
| 1788011497 | 22.22° C | 97% | 1018.5 hPa | 0 mm | - | 109 W/m² | - |
| 1788011193 | 22.22° C | 97% | 1018.6 hPa | 0 mm | - | 108 W/m² | - |
| 1788010887 | 21.67° C | 98% | 1018.4 hPa | 0 mm | - | 107 W/m² | - |
| 1788010587 | 21.67° C | 98% | 1018.4 hPa | 0 mm | - | 107 W/m² | - |
| 1788010286 | 21.67° C | 99% | 1018.2 hPa | 0 mm | - | 92 W/m² | - |
| 1788009981 | 21.67° C | 99% | 1018.2 hPa | 0 mm | - | 92 W/m² | - |
| 1788009680 | 21.67° C | 99% | 1018.1 hPa | 0 mm | - | 82 W/m² | - |
| 1788009379 | 21.11° C | 99% | 1018.2 hPa | 0 mm | - | 82 W/m² | - |
| 1788009079 | 21.11° C | 99% | 1018.3 hPa | 0 mm | - | 82 W/m² | - |
| 1788008775 | 21.11° C | 99% | 1018.1 hPa | 0 mm | - | 80 W/m² | - |
* Rain latest hour (hover to see other rain measurements)
** Current wind speed in m/s (hover to see current wind gust speed)